Wind_Speed
41 38 35 32 29 27 26 24 21 18 17 16 14 14 13 13 13 12 12 12 15 18 19 17 15 11 8 6 6 7 8 11 12 10 10 9 9 8 6 3 0 3 5 6 7 8 9 8 7 5 4 4 4 3 3 3 2 1 1 1 2 2 4 5 7 8 9 8 7 4 3 4 4 2 2 0 2 3 1 0 3 3 2 5 7
40 38 36 34 31 29 26 23 20 18 17 16 15 15 14 13 12 11 11 13 16 18 17 15 12 8 3 3 6 8 10 12 10 8 8 8 9 7 4 3 4 5 5 6 7 8 8 7 6 5 4 4 4 3 3 3 2 1 2 2 2 3 4 5 6 7 8 8 6 6 5 5 3 2 1 2 1 3 3 2 1 2 2 5 5
40 38 37 35 32 29 25 23 20 19 18 17 16 15 14 13 11 11 12 15 16 16 15 13 10 6 4 5 10 12 11 9 7 7 7 9 9 7 5 4 5 6 5 5 7 7 7 6 6 5 4 4 4 3 3 2 3 3 3 3 3 3 3 4 5 7 8 9 6 7 8 7 3 2 3 4 3 3 4 3 1 2 3 7 8
40 39 38 36 33 29 25 22 20 20 19 18 17 16 14 13 12 12 14 15 14 14 13 11 9 6 6 8 12 12 10 5 4 6 7 10 10 8 6 5 5 5 5 5 6 6 6 6 5 5 4 4 4 5 3 2 3 5 5 4 5 5 4 4 5 6 8 8 7 8 8 8 5 4 4 4 4 4 4 3 2 3 2 8 11
41 40 38 36 32 28 24 22 21 21 20 19 17 16 14 13 13 13 13 13 13 13 11 10 9 6 5 7 9 7 5 3 4 6 8 9 10 9 7 5 4 4 4 5 5 6 6 5 4 4 4 4 5 7 6 3 3 5 4 5 7 7 5 4 5 6 7 8 8 10 9 8 8 7 6 6 5 4 4 2 3 4 2 8 9
42 40 38 36 32 27 24 22 22 21 20 19 17 16 14 14 14 13 13 13 12 11 10 9 9 7 5 4 4 4 3 4 6 8 8 8 9 8 6 5 3 3 4 5 5 5 5 5 4 3 4 2 3 6 8 6 4 4 3 4 6 7 6 4 5 6 7 8 8 10 10 9 8 9 8 7 5 4 5 2 4 5 2 8 9
42 40 39 36 31 26 23 23 23 22 20 18 17 16 15 15 14 13 13 13 12 11 11 10 10 9 8 7 7 7 7 8 9 9 8 6 6 6 4 3 2 2 4 5 5 5 5 5 4 4 4 3 1 3 8 7 5 4 3 4 4 6 5 4 4 6 8 9 9 9 10 9 8 9 8 7 5 5 6 4 5 4 4 8 7
42 40 39 36 29 25 23 23 23 21 19 17 17 16 16 15 14 14 14 13 12 12 11 11 11 11 11 10 9 9 9 10 10 8 6 4 4 4 4 2 0 2 3 4 5 6 6 5 5 5 5 5 3 2 6 6 5 4 4 4 5 6 6 5 5 5 7 9 10 9 8 8 8 8 7 7 6 4 4 4 5 1 6 8 3
42 40 39 34 28 24 23 24 23 21 19 17 18 17 16 15 15 14 14 13 13 13 13 13 13 13 12 11 10 10 11 11 10 8 6 4 2 2 3 3 3 3 4 5 5 6 6 6 6 6 6 6 6 5 5 5 6 6 6 6 7 7 8 8 7 7 7 8 10 9 8 7 8 8 7 7 5 4 3 4 4 2 7 8 3
43 41 39 33 26 23 23 24 23 20 19 19 18 17 15 15 15 14 13 13 13 14 14 14 14 13 12 12 12 12 13 13 12 10 7 5 3 2 4 4 4 4 5 6 6 6 6 7 6 6 5 6 6 7 7 6 7 9 9 9 7 8 9 9 9 8 7 7 9 10 9 8 8 9 8 7 5 5 3 2 3 3 7 8 4
43 41 38 31 25 23 24 24 23 20 19 19 18 17 15 15 15 13 13 13 13 13 13 14 14 13 13 12 13 14 15 15 14 14 12 9 6 4 4 5 5 6 7 7 7 7 7 7 8 7 6 7 8 8 8 9 11 11 10 9 8 8 9 9 9 8 7 6 8 10 10 9 9 10 8 5 4 7 4 2 4 6 8 7 4
43 41 37 28 24 23 24 24 22 20 20 19 18 17 16 15 15 13 13 13 13 13 13 14 14 14 14 14 14 15 15 15 15 16 15 13 10 8 6 6 6 6 6 7 7 8 8 8 9 8 8 8 9 10 11 12 12 9 7 7 7 8 8 8 8 7 5 5 7 9 9 8 8 8 7 4 3 6 5 4 6 7 7 4 3
44 41 35 26 23 23 24 24 22 20 20 20 19 18 18 16 15 14 13 13 14 14 14 15 15 15 15 16 15 15 15 15 15 16 16 15 13 11 9 7 6 6 6 6 7 8 9 9 9 8 7 8 8 8 7 6 5 4 4 5 6 7 6 6 5 4 4 4 6 7 7 7 7 6 6 4 2 2 4 5 5 5 4 2 3
44 41 32 24 23 23 24 23 21 21 21 21 20 21 21 19 17 17 16 15 16 16 16 17 18 19 19 19 19 18 18 17 17 18 19 18 17 15 13 10 9 7 6 6 7 8 9 9 9 7 6 5 4 2 2 2 2 3 3 2 2 2 2 1 2 3 4 5 6 7 7 7 7 6 5 5 4 3 3 5 5 4 3 3 5
44 39 28 22 22 22 24 23 21 21 22 22 23 24 24 23 21 20 20 19 19 20 21 22 22 23 23 23 23 22 21 21 21 21 22 22 21 19 17 15 11 9 7 5 5 6 7 8 8 6 4 1 1 2 3 4 4 4 4 4 3 2 2 1 0 1 3 5 6 7 8 8 7 6 5 5 4 3 2 4 3 3 4 5 6
43 36 25 21 21 22 23 22 20 21 22 23 25 26 26 26 26 25 25 24 24 24 25 26 25 25 25 26 26 26 25 24 23 23 23 23 23 22 21 19 15 12 9 7 5 3 1 2 3 2 1 3 3 3 5 7 8 9 8 6 4 3 2 2 1 1 1 3 5 7 8 8 7 5 4 4 3 1 4 5 4 5 6 6 7
42 32 22 20 20 21 22 20 19 21 23 25 27 27 27 27 28 28 27 26 26 27 27 28 28 28 28 29 29 28 26 24 22 22 22 23 25 24 24 22 20 18 17 17 16 14 12 10 8 7 7 7 7 8 10 11 11 11 9 7 5 3 1 1 1 1 2 2 3 5 6 7 8 6 5 5 6 7 9 8 7 8 7 6 7
40 28 21 20 19 20 21 19 19 22 24 27 28 29 28 28 28 28 27 27 27 29 29 30 30 31 31 30 28 26 24 24 23 22 22 24 27 28 27 26 26 25 25 26 26 26 24 21 20 17 16 14 13 13 12 12 11 9 8 7 5 3 2 1 1 1 2 2 2 3 4 6 9 10 9 8 8 9 9 8 7 7 6 6 6
37 24 19 19 18 20 20 18 19 23 25 27 29 29 29 28 28 28 28 29 30 31 31 31 31 31 29 27 25 24 25 25 26 25 25 28 31 32 31 31 31 31 32 32 32 32 30 27 25 23 20 17 14 12 12 11 10 10 9 9 9 7 6 4 3 2 1 1 0 1 2 3 6 9 9 8 7 7 7 6 5 5 4 5 5
33 22 18 17 17 19 19 18 19 23 26 28 29 29 28 27 28 28 29 30 32 32 33 33 31 30 28 27 25 24 25 26 28 28 29 32 34 34 34 35 35 35 35 34 34 33 31 28 25 22 19 17 16 16 16 15 15 15 14 14 13 12 10 8 6 5 4 3 2 2 3 3 4 5 5 4 4 5 6 6 5 5 4 3 2
30 20 18 16 17 18 18 17 19 24 26 27 28 29 28 27 28 28 30 31 32 32 33 32 30 29 29 28 27 26 26 27 29 30 32 35 37 36 36 36 37 37 37 36 35 34 33 31 29 26 24 24 24 24 24 23 23 22 20 19 18 16 14 12 10 9 7 6 4 4 3 3 3 3 4 4 4 5 6 6 5 3 1 2 3
27 19 17 15 16 17 18 18 20 23 25 27 28 29 29 29 29 30 31 31 31 30 30 29 29 29 28 28 28 28 27 28 30 32 34 37 38 36 36 36 38 39 39 39 38 37 37 36 35 33 32 31 30 29 28 28 27 26 25 25 23 22 19 17 15 13 12 10 9 8 7 5 4 4 4 4 4 4 4 3 2 2 4 5 5
25 19 15 13 14 15 17 18 21 23 24 26 28 30 30 31 31 31 31 30 29 28 28 29 29 29 28 28 29 29 29 29 31 33 35 38 38 37 36 35 37 38 39 39 38 38 37 36 35 33 32 30 29 29 28 27 26 26 26 25 24 24 23 21 20 19 17 16 15 13 12 11 10 9 9 9 8 8 8 8 8 8 7 6 4
24 18 13 11 12 14 16 17 19 20 22 25 27 30 31 30 29 28 28 28 27 28 28 29 29 29 29 29 29 30 30 30 32 33 35 37 38 38 37 36 35 36 37 37 37 36 35 34 32 31 30 28 28 27 26 25 24 23 23 22 21 21 21 21 21 21 21 21 20 19 17 16 15 14 14 13 13 12 12 11 10 9 8 6 4
22 17 12 10 10 13 15 15 15 16 19 24 27 28 29 27 26 25 25 26 27 29 30 30 30 30 30 30 30 30 30 31 31 33 34 36 37 37 37 37 36 36 36 37 36 35 34 32 31 31 30 29 27 26 24 23 22 22 21 20 19 19 18 18 18 19 20 21 22 22 21 20 20 19 18 16 15 14 13 12 11 10 9 8 8
21 16 11 8 8 12 14 14 15 15 19 23 26 26 27 26 25 24 25 27 28 29 30 30 31 31 31 30 30 30 30 30 31 32 33 35 36 37 37 37 37 36 36 36 36 35 34 34 33 33 32 31 29 27 26 25 23 22 21 20 18 17 16 16 16 17 18 19 20 21 21 22 23 22 22 20 19 18 16 15 13 12 12 12 13
20 15 9 6 7 11 12 14 15 16 18 22 24 25 25 26 25 25 26 27 27 28 29 30 31 31 30 30 29 29 29 30 31 32 33 34 35 36 36 36 36 36 35 35 35 35 35 35 35 35 34 32 31 30 29 27 25 24 22 21 19 17 17 16 16 17 17 17 18 18 19 20 22 23 23 23 22 21 20 18 17 16 16 17 18
19 14 8 5 5 10 12 13 14 16 18 20 22 23 24 24 24 24 24 25 26 28 29 29 30 30 29 28 28 28 28 29 30 31 32 33 34 35 35 35 35 35 35 35 35 35 36 36 36 36 35 34 32 31 30 28 27 26 25 24 21 20 19 18 18 18 18 17 16 16 17 17 18 20 21 22 23 23 22 21 20 20 19 20 20
17 13 7 3 5 10 11 12 13 15 17 18 20 21 21 22 22 21 20 21 24 26 27 28 29 29 28 28 28 28 28 29 30 30 31 32 33 33 34 34 35 35 35 35 35 36 36 36 36 37 36 35 33 32 30 29 28 27 27 26 24 23 22 22 22 21 20 19 18 16 15 15 15 16 17 18 20 21 21 21 21 21 20 20 20
16 12 6 2 5 10 11 12 13 15 16 16 17 17 17 19 20 19 18 19 20 22 24 26 27 27 27 28 28 28 28 29 29 30 31 31 32 32 33 34 34 35 35 35 36 35 36 36 36 36 36 36 34 32 30 29 28 28 28 27 26 25 25 25 25 25 24 22 21 19 16 15 13 13 13 14 16 17 18 19 19 19 19 18 18
15 11 5 1 6 10 11 12 14 15 15 15 15 14 15 17 18 18 18 18 18 20 22 23 24 24 25 26 26 26 27 28 28 29 29 29 30 31 31 32 33 34 35 35 35 35 35 35 35 35 36 36 35 32 30 28 27 27 28 28 27 27 27 27 27 27 26 25 23 22 19 17 14 12 10 10 10 12 14 15 16 16 16 16 15
14 10 5 2 8 11 11 12 13 15 15 14 14 14 15 17 17 16 17 18 18 19 21 21 22 22 23 24 24 24 25 26 27 27 27 27 28 29 30 31 32 33 33 33 33 34 34 34 34 34 35 35 35 33 30 28 27 27 27 27 27 27 27 27 28 27 27 26 25 23 21 19 17 14 11 9 7 7 7 9 11 12 13 13 13
13 8 4 3 9 12 10 12 14 15 16 15 15 15 16 17 16 16 16 17 17 18 18 18 19 19 21 22 22 23 23 24 25 25 26 26 26 27 28 29 30 31 31 32 32 32 33 33 33 34 34 34 35 34 31 29 27 26 26 27 27 27 27 27 27 27 27 26 25 23 22 20 17 15 12 10 8 6 5 5 5 6 7 8 8
12 7 3 5 11 13 11 13 15 16 17 16 16 16 16 17 16 16 16 16 16 16 16 16 17 18 20 20 21 21 22 23 24 24 25 25 25 25 26 27 28 29 30 30 31 31 31 32 32 33 33 34 34 34 33 30 27 26 25 26 27 27 27 26 27 27 27 26 25 23 21 19 17 15 13 10 8 6 5 4 5 5 5 6 6
11 5 3 6 12 14 13 14 15 16 18 18 18 17 17 17 16 15 15 15 15 15 16 17 17 18 18 19 20 21 21 22 23 23 24 24 24 25 25 26 27 27 28 29 29 29 30 32 32 32 33 33 34 34 34 32 29 27 26 27 28 28 27 26 27 27 27 26 24 23 21 19 17 15 12 10 7 6 5 4 4 4 5 6 6
10 3 3 8 14 16 16 17 17 18 19 19 19 19 18 17 16 16 16 16 16 16 17 18 17 17 17 18 19 19 19 20 21 22 23 24 24 24 24 24 25 26 26 27 28 29 30 31 32 32 32 33 33 34 35 34 31 28 27 27 27 27 27 27 27 27 27 26 25 24 22 20 18 16 14 11 9 6 5 3 3 3 3 4 5
9 2 4 9 15 19 20 19 19 19 20 20 20 19 18 17 16 16 17 18 17 17 17 17 16 16 16 17 17 17 17 18 20 21 22 23 23 23 23 23 24 25 26 27 28 29 30 31 31 31 32 32 33 33 34 35 34 30 27 27 27 27 27 28 29 28 27 27 26 25 24 23 21 19 17 15 13 11 8 5 4 2 2 3 3
8 2 5 10 17 21 22 22 20 20 20 20 20 19 18 18 17 16 18 18 17 16 16 16 16 15 15 15 15 14 15 16 17 18 20 21 21 21 21 22 23 24 26 27 28 29 29 30 30 30 31 31 32 33 34 35 36 33 29 27 27 27 28 29 29 29 29 29 28 27 26 25 23 22 20 19 17 15 13 11 8 5 3 2 3
7 2 5 11 18 23 24 23 22 21 20 20 19 18 18 17 17 16 17 17 15 14 14 14 14 14 14 14 13 13 14 15 15 16 17 18 19 20 20 21 23 24 25 27 28 28 29 29 29 29 30 31 32 32 33 35 36 35 31 28 27 27 28 29 29 30 30 30 30 29 28 27 26 24 23 21 19 17 15 13 11 9 6 4 3
7 3 5 11 18 25 26 25 23 20 19 19 18 17 16 16 15 15 15 14 12 11 12 12 12 12 12 13 13 13 14 15 15 15 15 16 17 18 19 20 22 23 24 25 26 27 27 28 28 28 29 30 31 32 33 34 35 35 33 30 27 27 28 28 29 30 31 32 31 31 30 29 28 27 26 25 23 20 18 16 13 11 9 6 5
7 4 5 11 17 25 28 27 24 21 19 18 17 16 14 14 13 13 13 12 11 11 11 11 11 11 11 12 12 13 14 14 15 15 15 16 16 16 17 18 20 21 23 24 25 26 26 26 27 27 28 30 31 31 32 33 33 35 35 32 29 27 27 28 29 30 31 32 33 33 32 31 30 30 31 31 29 27 24 22 19 17 14 11 9
8 4 5 10 16 23 29 29 25 22 20 18 16 14 12 11 11 11 10 10 10 10 10 10 10 11 11 11 12 12 13 14 14 15 15 16 16 15 15 17 18 20 22 23 24 24 25 25 26 26 27 29 30 31 32 32 33 34 35 34 32 28 27 28 28 29 31 33 34 34 33 32 32 34 36 36 36 35 32 29 26 23 21 17 15
9 5 6 10 15 20 27 31 29 25 22 19 16 12 10 8 8 9 8 8 10 10 10 10 10 10 10 11 11 11 12 13 14 14 14 15 15 14 15 16 17 19 21 22 23 23 23 24 25 25 26 27 29 31 31 31 32 33 34 34 33 30 29 28 29 30 31 32 34 34 33 33 34 36 38 40 41 41 38 36 32 29 26 23 21
10 7 7 10 15 18 22 29 31 29 26 22 19 16 11 7 7 8 7 8 10 10 10 10 10 10 10 10 11 11 12 13 13 13 14 14 14 14 14 15 16 18 19 20 22 23 22 23 24 24 25 26 27 29 31 31 31 32 33 34 34 33 30 29 30 31 31 32 35 34 33 33 34 36 38 41 44 45 44 43 38 34 31 28 26
11 9 8 10 15 17 19 24 29 30 30 27 24 21 17 12 9 8 8 9 11 11 10 9 9 9 10 10 11 11 12 12 11 12 12 13 13 13 13 14 14 16 17 19 21 22 22 22 22 24 25 26 27 28 30 30 31 32 32 33 34 34 33 31 30 31 31 33 34 34 33 33 33 34 36 40 43 45 46 46 44 41 39 35 32
11 10 9 10 14 16 18 21 24 26 27 27 25 24 21 17 13 10 9 11 12 11 10 9 9 9 10 10 11 11 11 10 10 11 11 12 12 12 12 12 13 15 16 17 19 20 21 21 21 22 24 25 26 26 28 30 31 31 32 32 33 34 34 32 31 31 31 33 33 33 33 32 31 32 35 38 40 42 44 45 45 45 45 43 40
10 10 10 10 13 16 17 20 21 22 23 24 24 23 22 19 16 13 11 13 14 12 11 10 9 9 10 10 11 11 10 10 10 10 11 11 11 11 11 12 13 13 15 16 17 18 19 20 20 21 23 24 25 25 26 28 30 31 31 32 32 33 33 33 32 31 31 31 32 32 32 32 31 31 32 34 35 37 40 42 43 43 44 44 43
9 10 10 10 13 16 17 20 22 21 21 22 23 23 22 20 18 15 13 15 15 13 11 10 10 10 10 10 11 11 10 10 10 10 11 11 10 10 10 11 11 12 13 14 15 16 17 18 19 19 21 22 23 24 25 27 28 30 31 31 32 32 33 33 34 32 31 30 30 31 32 32 31 29 28 30 32 33 36 38 38 39 40 41 41
8 9 10 11 14 16 17 20 22 22 21 21 22 23 22 21 19 16 15 16 16 14 12 11 10 11 11 11 11 11 10 10 9 9 10 9 9 9 10 10 10 10 11 11 12 13 15 16 17 18 19 20 21 22 24 25 27 28 29 30 31 32 32 32 33 33 32 30 30 31 32 31 29 28 27 28 29 30 32 34 34 35 36 37 36
9 9 10 11 14 16 18 20 22 23 22 22 22 23 23 21 19 17 16 17 17 15 13 12 11 11 11 11 11 11 10 9 9 8 8 8 8 8 8 8 8 8 9 9 10 11 12 14 15 16 17 18 19 20 22 24 25 26 28 29 30 31 32 32 32 32 32 32 30 30 30 29 28 28 28 27 27 27 28 29 30 31 33 32 32
10 10 10 11 14 16 18 20 22 23 23 23 22 23 22 21 20 18 17 17 17 16 14 13 12 12 12 12 11 11 10 9 8 7 7 7 7 7 6 6 6 7 8 8 9 9 10 12 13 13 15 16 17 19 20 22 23 24 26 27 28 29 30 31 31 31 31 32 31 30 29 28 27 28 28 27 26 25 25 25 26 27 28 28 28
Wind_Direction
352 355 355 353 350 346 345 344 342 346 348 346 344 343 341 337 332 330 330 330 329 328 327 326 324 321 324 324 311 313 334 343 343 339 335 336 333 329 325 327 114 139 150 164 172 175 175 175 176 187 210 236 249 252 240 222 223 269 306 269 217 218 212 215 215 217 215 204 198 190 181 191 198 200 146 70 178 157 227 312 29 31 347 264 253
355 357 356 353 350 349 348 346 347 353 352 350 350 348 346 343 340 340 338 336 333 331 330 330 326 314 319 2 348 340 344 347 352 357 355 349 345 345 1 47 109 126 144 162 173 178 179 180 186 199 219 244 257 248 228 206 183 197 257 247 224 222 217 219 219 223 211 195 192 181 195 205 199 222 218 343 264 191 218 241 49 80 319 264 250
357 357 356 353 352 352 351 349 353 358 355 354 353 352 352 350 349 348 344 339 337 336 335 336 331 302 268 312 341 353 357 359 12 14 5 359 1 12 36 76 110 126 143 162 175 182 189 194 203 216 231 249 256 241 223 211 186 191 227 232 227 226 215 224 223 226 215 205 202 188 204 210 199 228 247 312 293 244 233 246 243 156 324 300 287
358 358 356 353 353 354 352 352 358 0 358 357 357 358 358 358 358 354 347 344 342 342 341 342 339 312 276 303 333 347 354 8 27 19 11 11 20 33 54 82 110 132 150 167 179 189 201 212 221 229 242 249 256 249 239 232 203 194 211 219 220 218 211 234 234 227 221 218 206 193 206 213 215 229 243 283 286 276 256 270 243 173 324 286 273
358 358 355 354 355 356 354 356 3 3 360 360 1 3 4 5 2 356 352 351 349 349 351 352 354 344 309 314 332 342 359 30 25 21 17 19 28 39 63 82 110 144 165 177 186 195 208 218 226 239 252 258 265 254 238 226 206 197 207 223 223 221 227 247 251 238 228 225 214 208 213 214 228 242 248 261 262 262 255 286 217 185 302 278 275
359 359 356 355 356 357 356 1 7 4 2 3 5 8 10 8 3 2 1 359 359 4 12 15 18 20 15 359 9 35 50 31 14 11 11 18 28 37 59 82 117 151 178 188 197 206 216 218 226 251 243 234 284 244 222 217 211 212 217 225 224 225 238 258 262 251 239 232 227 225 225 224 236 243 246 253 259 257 254 270 212 205 302 286 288
359 359 357 356 358 358 359 7 10 5 4 6 11 14 13 10 10 12 10 11 18 28 36 39 42 48 57 64 62 54 34 14 3 358 4 16 24 30 43 75 125 165 191 201 209 219 226 222 221 234 226 213 321 203 201 212 219 224 226 227 226 224 229 246 265 260 252 243 237 235 233 234 238 244 250 254 270 268 261 258 222 233 293 279 280
360 359 357 357 359 -0 4 11 10 5 6 12 16 17 16 17 21 20 20 29 37 43 50 54 59 65 69 72 62 43 24 8 359 354 1 6 9 19 13 18 205 210 213 224 223 226 230 229 222 219 223 225 253 206 196 220 236 237 239 247 244 233 228 236 259 269 262 248 240 238 235 237 238 246 255 264 277 268 253 232 209 265 304 282 268
360 359 358 358 1 3 9 14 10 7 11 17 19 19 21 26 29 28 35 43 47 54 63 65 67 69 69 68 57 39 24 11 5 358 356 355 344 335 330 319 284 252 240 246 239 234 233 235 234 225 225 237 261 253 232 243 260 264 260 272 266 249 243 243 257 269 272 255 240 238 237 238 239 248 261 276 271 227 226 223 214 341 314 293 250
360 359 358 360 4 6 13 15 10 11 15 20 22 23 27 33 34 37 49 53 57 65 70 68 66 66 64 60 49 37 28 23 22 19 13 4 345 307 295 292 284 273 260 249 245 241 238 243 252 254 247 257 271 263 254 255 273 278 267 277 280 264 258 259 267 270 274 261 241 237 240 241 245 256 262 275 254 205 204 234 264 311 295 286 246
359 359 358 2 6 9 16 16 13 15 19 23 24 27 32 37 37 45 58 60 63 66 64 61 59 57 55 50 43 37 32 33 37 39 41 38 29 3 318 301 298 290 275 261 251 246 246 253 263 273 272 274 273 263 259 258 274 282 267 272 280 277 273 270 271 270 273 264 243 239 241 247 254 262 255 252 229 208 217 307 304 292 275 265 226
359 359 359 4 8 12 19 18 15 18 21 25 28 29 33 36 38 49 61 62 61 60 54 51 50 49 47 46 43 38 38 43 47 48 49 48 42 27 2 336 320 302 284 271 258 251 251 256 261 265 270 273 270 266 266 265 274 279 267 270 274 274 275 272 270 265 267 256 242 236 237 249 253 256 242 218 209 212 238 289 303 292 272 243 220
358 359 1 8 11 16 22 20 17 20 25 29 29 31 34 38 43 53 60 60 58 56 51 48 49 49 49 50 50 51 54 57 54 51 49 45 36 24 9 351 332 312 291 276 261 252 252 255 258 259 265 270 272 278 281 273 275 287 282 277 272 273 274 272 266 251 250 241 234 232 235 247 241 239 237 228 240 251 266 283 298 305 286 251 281
358 359 4 11 13 19 25 22 19 23 31 33 33 37 41 45 50 55 58 58 56 55 53 54 57 58 59 63 66 70 69 65 59 55 52 46 37 27 15 1 346 326 303 286 269 257 255 258 260 260 270 279 279 309 27 44 11 339 321 303 286 288 287 264 233 233 245 242 235 239 248 255 247 244 252 261 288 327 301 265 273 287 275 282 301
359 0 8 15 16 24 27 23 21 30 38 40 42 46 48 51 55 58 59 60 61 62 63 65 67 69 72 74 75 74 71 67 64 61 57 50 42 35 28 20 12 0 343 320 291 270 262 260 261 261 272 283 117 69 50 47 44 46 55 67 71 66 60 70 119 254 255 246 238 246 257 259 261 267 274 281 302 343 286 236 224 243 264 289 301
359 2 13 19 20 28 29 25 27 39 46 50 53 53 54 56 61 64 66 67 69 71 72 74 75 76 76 75 74 72 70 68 66 62 57 49 42 39 38 37 38 39 40 41 43 38 337 273 265 249 162 107 102 73 64 67 68 69 66 63 61 53 40 23 344 280 244 235 236 247 257 254 252 265 275 273 272 190 191 206 220 258 281 295 306
360 5 19 22 25 31 32 30 37 51 56 60 61 59 59 61 66 70 71 73 75 77 77 77 77 77 76 75 74 72 69 66 64 60 55 48 43 44 46 49 56 62 65 68 70 72 74 74 78 88 94 95 92 83 76 72 67 64 62 60 59 57 49 14 259 228 225 223 241 253 259 251 236 226 226 234 224 196 200 221 248 267 281 298 313
1 8 22 25 29 34 38 39 48 61 65 67 66 63 64 67 72 74 74 76 79 79 77 77 77 76 76 76 74 71 68 65 62 60 57 51 49 52 55 60 67 72 74 75 77 78 80 80 82 86 90 92 90 81 73 67 63 59 57 59 63 71 94 106 150 218 235 244 266 270 262 244 228 222 223 223 215 207 217 236 254 264 279 304 323
2 12 24 27 33 38 45 48 58 69 72 72 68 67 67 70 76 77 75 78 80 78 77 77 77 76 76 75 73 72 70 66 63 64 63 57 56 59 63 68 72 75 77 78 79 81 83 84 85 87 88 86 79 69 62 61 64 65 67 70 74 79 89 95 98 121 146 158 219 242 225 208 212 220 229 231 224 224 228 232 246 267 297 318 333
3 14 24 30 37 44 54 56 67 78 77 73 69 68 67 70 76 75 76 81 82 79 79 78 76 75 74 74 74 72 70 66 65 68 67 62 62 64 68 72 75 77 78 79 80 82 84 85 85 84 81 75 69 66 66 68 71 75 76 78 79 80 83 85 86 92 96 95 106 128 155 167 183 200 214 220 219 216 210 219 251 284 308 331 359
4 16 24 32 40 51 63 65 77 83 78 72 69 68 69 74 77 76 79 83 84 82 80 77 74 74 73 73 74 72 71 69 68 69 69 67 67 69 71 73 76 78 78 79 80 82 82 82 81 79 77 75 74 74 75 75 75 75 75 75 76 76 77 78 81 84 87 90 97 107 125 149 170 185 198 208 211 208 212 230 256 282 333 77 106
5 17 25 34 44 60 72 74 86 86 77 73 72 71 73 79 80 79 83 86 86 84 78 74 74 73 73 73 74 73 72 71 71 71 71 70 70 71 71 71 74 77 77 78 79 79 79 78 77 76 76 75 75 74 74 73 72 72 72 72 72 72 73 74 75 77 80 82 84 85 88 97 111 125 145 164 171 176 181 185 159 114 111 123 131
6 17 26 36 49 70 81 86 92 86 78 77 77 77 80 84 82 82 83 85 84 80 75 74 75 73 74 74 74 74 73 73 73 73 73 73 74 73 72 71 73 75 75 76 76 76 76 75 74 73 72 72 71 69 69 68 68 68 68 68 70 70 71 72 73 73 74 75 76 77 79 83 88 92 98 104 109 111 112 111 109 109 114 122 130
6 18 27 37 55 80 91 97 98 87 82 83 83 83 86 86 83 81 82 82 81 77 76 76 76 75 76 76 76 76 75 75 74 74 74 75 76 76 75 74 74 74 74 75 75 74 73 73 73 72 71 70 70 70 69 69 68 68 67 67 68 69 70 71 71 72 72 73 74 74 76 79 82 86 87 90 93 95 98 100 102 103 105 107 108
6 19 27 37 62 91 99 104 104 95 90 89 90 89 90 88 82 79 80 81 80 79 79 78 78 78 78 78 78 78 77 77 76 75 75 76 77 78 78 77 77 76 76 76 75 74 72 71 70 70 69 68 69 71 72 72 71 70 69 68 66 66 67 69 71 72 72 73 74 74 75 77 79 82 84 87 89 90 92 92 94 97 102 106 109
6 19 27 37 69 100 104 106 107 104 101 96 95 94 93 89 82 80 81 81 80 79 79 79 80 80 80 80 79 79 78 78 77 77 77 77 78 79 79 79 79 78 76 75 75 74 72 70 67 65 65 65 65 66 68 69 69 71 71 71 69 67 67 67 70 71 73 73 73 74 74 75 77 78 80 83 85 87 89 90 94 99 104 108 111
5 19 26 36 79 110 113 112 108 109 110 103 100 99 96 92 86 84 83 80 79 80 81 81 81 81 81 80 79 79 79 79 78 79 79 79 79 79 80 79 79 78 76 74 73 71 69 67 64 62 60 60 60 61 62 64 65 67 69 71 72 73 73 71 71 71 71 72 73 74 74 75 77 79 81 82 83 85 88 91 95 99 103 107 112
5 19 25 37 93 119 121 120 114 114 118 112 106 104 100 97 93 89 83 79 80 82 84 82 81 81 81 80 80 80 80 80 80 80 80 80 79 79 80 80 79 77 75 72 70 68 65 63 61 59 57 55 55 56 57 59 61 62 64 66 66 68 70 70 69 69 69 69 72 75 77 78 79 82 84 85 87 87 89 91 94 98 103 108 113
4 19 26 42 111 127 126 127 122 119 124 120 114 110 105 103 100 96 88 82 82 83 85 84 81 80 81 81 81 81 82 82 81 81 80 79 79 79 79 78 77 76 73 70 67 65 62 60 58 57 55 53 52 52 54 56 57 59 61 62 61 62 63 64 65 65 66 66 68 71 76 81 84 87 90 92 93 93 93 94 97 102 107 112 116
2 21 29 57 126 133 128 127 125 123 127 127 123 117 112 109 106 103 96 88 86 86 88 86 82 80 82 83 82 82 82 81 81 80 79 78 78 78 77 76 76 75 72 69 66 63 61 59 57 55 54 52 51 51 53 55 56 58 59 60 60 60 60 61 62 63 63 63 64 65 68 72 79 86 92 98 103 105 106 107 109 112 115 119 122
359 21 35 95 138 136 131 128 126 125 128 130 129 124 119 116 112 108 102 97 94 92 92 90 86 83 83 84 83 82 81 80 80 79 78 77 77 77 76 75 74 73 71 68 66 63 60 58 56 54 53 52 51 51 52 55 57 58 59 60 60 59 59 59 59 59 59 59 60 61 62 64 68 75 84 96 108 118 123 125 127 128 130 131 133
358 21 40 144 149 141 135 131 127 126 128 129 127 124 123 120 118 115 110 106 102 97 95 92 89 87 87 86 84 83 81 80 80 80 78 77 77 77 76 75 73 71 69 67 65 63 60 58 56 54 53 52 51 51 53 56 57 59 59 59 59 59 58 58 58 57 56 55 54 55 56 57 60 64 71 82 97 116 132 141 145 146 146 146 147
356 21 56 168 159 148 143 137 131 128 127 125 123 122 123 122 122 122 118 114 110 104 99 96 93 91 90 88 85 84 82 81 80 80 80 79 78 77 76 75 73 70 67 65 63 61 60 59 57 56 54 52 51 51 52 55 58 60 61 60 59 59 57 57 58 57 55 53 51 50 49 50 51 54 59 69 81 98 121 143 156 159 159 159 159
353 20 85 176 167 155 151 145 137 132 128 124 121 120 121 122 125 128 125 120 115 112 106 100 98 95 93 92 89 86 83 82 81 81 81 80 79 78 78 76 73 69 65 62 60 59 58 58 57 57 55 53 51 51 51 53 56 59 61 61 60 59 57 57 57 56 54 52 50 48 47 46 46 46 48 52 63 80 100 127 150 162 168 171 174
351 19 118 178 172 160 156 150 142 135 129 124 120 116 117 119 124 131 132 126 120 117 112 105 102 98 97 97 94 89 87 84 84 84 83 82 81 79 78 76 73 68 65 61 59 57 56 55 55 55 54 52 51 51 50 51 53 56 58 59 58 57 56 56 56 55 52 50 47 46 44 43 43 43 43 43 47 59 75 98 125 145 161 172 180
346 16 140 179 176 164 157 153 145 137 130 124 118 111 109 112 118 127 132 131 126 121 114 108 103 101 102 103 98 92 90 87 86 86 83 81 81 80 78 75 72 68 64 61 58 56 55 54 53 53 52 51 50 50 49 49 50 52 55 58 57 56 56 55 54 52 49 46 43 42 39 37 37 39 39 39 40 44 55 73 90 115 140 158 171
339 2 157 179 179 167 159 154 147 138 130 123 116 110 106 105 110 121 130 131 128 124 118 111 107 106 109 110 103 96 92 89 86 85 83 82 82 82 80 75 71 68 63 59 58 56 55 53 53 53 52 50 49 49 48 48 49 50 51 55 56 56 55 55 53 50 47 44 41 38 35 33 34 36 35 34 33 35 43 55 74 102 130 147 158
331 326 174 181 181 172 161 155 148 139 131 123 117 113 109 106 106 115 128 132 129 125 122 116 111 111 113 112 107 98 92 90 88 86 85 84 84 83 79 73 68 65 61 58 57 56 55 54 53 53 52 50 48 48 48 48 48 49 50 52 53 53 53 53 51 48 46 43 40 37 35 34 35 37 38 36 35 35 39 45 54 68 93 130 155
320 296 192 186 184 177 166 157 151 142 133 124 118 115 112 110 109 113 127 135 131 128 127 121 115 114 113 111 106 99 94 93 91 89 87 86 84 83 77 70 66 64 59 56 55 56 56 54 54 53 52 51 48 48 48 48 48 48 49 51 52 52 52 51 49 47 44 42 40 38 37 38 40 41 41 41 40 41 43 44 48 53 62 77 104
308 279 205 191 186 182 173 163 157 149 138 128 121 117 114 113 113 117 127 136 137 134 134 131 124 119 113 110 107 102 98 94 92 91 90 88 85 81 76 69 65 62 58 54 54 55 56 55 55 54 53 51 49 48 48 48 47 47 48 49 50 51 51 50 49 46 43 41 39 39 40 43 44 44 44 44 45 46 47 47 48 50 53 60 74
295 270 217 198 189 186 182 172 164 157 148 138 129 122 117 114 114 118 127 138 142 139 137 135 132 127 118 113 110 105 98 95 93 92 91 91 89 84 77 68 64 62 57 54 53 54 55 56 55 54 53 52 50 48 48 48 48 47 47 47 49 50 50 49 48 46 42 40 39 40 43 45 46 45 46 47 49 50 51 52 54 56 58 63 71
287 263 221 206 192 189 189 183 175 167 160 150 140 130 123 120 118 119 127 140 147 146 140 136 135 132 124 117 112 108 100 94 94 93 93 92 90 85 76 66 61 60 57 53 52 53 53 54 55 54 53 52 51 49 48 48 48 47 46 46 47 48 48 48 47 45 41 39 40 42 45 47 46 47 49 51 52 52 53 55 57 60 64 68 74
282 253 216 208 196 190 192 192 188 182 174 168 163 156 143 134 132 128 130 142 151 152 146 141 138 135 128 120 115 111 102 96 95 95 94 92 90 86 76 68 61 58 56 53 51 51 52 52 53 53 52 52 51 49 49 49 48 47 46 45 45 46 47 46 45 45 43 40 40 42 46 49 48 48 51 53 55 54 55 56 58 61 65 70 74
277 251 215 205 199 192 192 195 196 195 192 190 191 193 190 179 162 147 140 147 153 154 152 148 144 139 132 125 120 115 105 99 96 95 96 94 91 86 77 70 64 59 56 53 51 50 50 51 51 51 51 51 51 49 48 49 49 48 46 45 44 44 46 46 45 45 44 42 43 44 47 50 50 50 52 55 56 56 56 58 59 61 64 67 70
274 254 221 204 200 194 191 193 196 199 202 203 206 209 210 208 192 168 154 154 155 155 156 152 146 140 136 131 126 119 110 103 100 98 97 95 91 86 79 72 67 61 58 54 51 49 48 49 49 49 50 51 51 49 48 48 49 49 47 45 44 43 44 45 45 45 44 43 44 45 48 51 52 51 52 55 57 57 58 60 61 62 63 64 65
272 258 232 209 200 195 190 190 192 196 201 204 208 211 214 214 204 183 166 161 160 159 160 157 150 145 139 135 130 123 116 108 104 102 100 96 91 86 80 73 67 61 58 54 51 48 46 46 47 47 48 50 50 49 48 48 49 49 48 46 44 43 43 44 45 45 44 43 44 45 48 52 54 52 52 56 59 59 60 61 62 63 64 65 65
270 260 242 217 200 196 190 185 186 189 194 198 201 205 209 210 204 188 172 167 166 167 166 163 157 151 144 140 135 129 124 118 112 109 105 98 93 86 78 70 64 59 55 52 50 47 45 45 45 45 45 48 49 48 47 48 49 49 48 46 44 44 43 43 44 45 45 45 45 47 49 52 54 54 54 56 58 59 61 61 62 63 64 65 66
267 259 245 223 201 195 189 184 182 184 189 192 194 197 200 200 196 186 175 172 172 173 172 168 163 157 151 145 139 136 132 125 120 115 108 102 95 85 75 66 60 56 52 49 47 46 45 44 44 43 44 46 47 47 47 47 48 48 48 47 45 44 43 42 43 44 45 45 45 47 49 51 53 55 56 56 57 57 59 61 61 62 62 62 64
257 251 240 225 206 196 190 185 181 182 186 188 189 190 192 192 190 185 178 176 177 177 175 171 166 160 155 150 145 141 138 133 127 119 111 103 94 83 74 65 57 52 50 48 46 44 43 43 43 42 43 44 45 46 46 47 47 48 48 47 45 44 42 42 42 42 43 43 43 46 49 50 52 54 55 57 57 56 57 59 59 59 60 59 61
244 244 233 224 212 201 192 187 184 183 184 186 187 188 188 190 189 185 182 180 180 180 177 173 169 163 157 153 149 145 144 140 133 123 112 100 89 80 71 62 53 48 47 46 44 42 41 42 42 41 41 42 43 44 45 46 47 47 47 47 46 45 43 42 41 41 42 43 42 44 47 49 50 52 54 56 58 57 57 57 57 58 58 57 57
232 238 228 219 215 206 195 191 189 186 184 184 185 187 188 190 190 187 184 184 184 184 182 177 171 165 159 155 152 150 148 144 136 124 111 101 91 82 73 61 50 45 44 44 42 39 39 41 40 39 39 39 39 41 43 45 45 46 46 45 45 45 43 42 41 41 41 43 43 43 45 46 46 49 52 55 57 58 58 57 56 58 59 58 55
Height
10994 10991 10988 10986 10984 10981 10978 10976 10973 10971 10969 10967 10965 10963 10961 10959 10957 10954 10952 10951 10949 10948 10947 10947 10946 10946 10946 10946 10946 10946 10946 10946 10945 10944 10944 10944 10944 10944 10944 10945 10945 10945 10945 10945 10946 10948 10949 10951 10952 10953 10953 10953 10953 10953 10952 10952 10951 10951 10950 10951 10951 10951 10952 10952 10953 10953 10953 10953 10954 10954 10953 10953 10953 10952 10952 10952 10952 10952 10951 10951 10951 10951 10951 10951 10951
10992 10989 10986 10984 10981 10979 10976 10974 10972 10970 10968 10966 10964 10962 10960 10958 10956 10954 10952 10951 10949 10948 10947 10946 10946 10946 10946 10946 10946 10946 10946 10945 10945 10944 10944 10944 10943 10943 10944 10944 10945 10945 10945 10946 10947 10948 10949 10951 10952 10952 10953 10952 10952 10952 10952 10952 10952 10951 10951 10951 10951 10951 10952 10952 10952 10953 10953 10953 10954 10954 10953 10953 10953 10953 10952 10952 10952 10951 10951 10951 10951 10951 10951 10951 10951
10990 10987 10984 10982 10979 10976 10974 10972 10970 10968 10966 10965 10963 10961 10960 10958 10956 10955 10953 10951 10949 10948 10946 10946 10945 10946 10946 10946 10946 10946 10946 10945 10945 10945 10944 10944 10943 10943 10944 10945 10945 10946 10946 10946 10947 10948 10949 10950 10951 10952 10952 10952 10952 10952 10952 10952 10952 10951 10951 10951 10951 10951 10951 10952 10952 10952 10953 10954 10954 10953 10953 10953 10953 10952 10952 10952 10952 10952 10952 10951 10951 10951 10951 10951 10951
10989 10986 10983 10980 10977 10975 10973 10971 10969 10967 10965 10964 10962 10961 10959 10958 10956 10955 10953 10951 10950 10948 10947 10946 10945 10945 10946 10946 10947 10947 10947 10946 10946 10946 10945 10945 10944 10944 10944 10945 10946 10946 10947 10947 10948 10949 10950 10950 10951 10952 10951 10951 10951 10952 10952 10952 10952 10952 10952 10952 10951 10951 10951 10952 10952 10952 10953 10953 10953 10953 10952 10953 10952 10952 10952 10952 10952 10952 10952 10952 10951 10951 10951 10951 10950
10988 10985 10982 10979 10976 10974 10972 10970 10968 10966 10965 10963 10962 10961 10959 10958 10956 10955 10953 10952 10950 10949 10948 10947 10946 10946 10946 10947 10948 10948 10947 10947 10947 10946 10946 10945 10944 10944 10944 10945 10946 10947 10947 10948 10949 10949 10950 10950 10951 10951 10951 10950 10950 10951 10951 10951 10952 10952 10952 10952 10951 10951 10951 10951 10951 10952 10952 10952 10952 10952 10952 10952 10952 10952 10952 10952 10952 10953 10952 10952 10951 10951 10951 10950 10949
10987 10984 10981 10978 10975 10973 10972 10970 10968 10966 10965 10964 10962 10961 10959 10958 10957 10955 10953 10952 10951 10950 10949 10948 10947 10947 10948 10948 10949 10948 10948 10948 10947 10947 10946 10946 10945 10945 10945 10946 10946 10947 10947 10948 10949 10949 10950 10950 10950 10950 10950 10950 10950 10950 10950 10951 10951 10952 10952 10951 10951 10951 10951 10951 10951 10951 10951 10951 10952 10952 10952 10952 10952 10952 10952 10952 10953 10953 10952 10952 10951 10951 10950 10950 10949
10986 10983 10980 10978 10975 10973 10971 10969 10968 10967 10965 10964 10962 10961 10960 10958 10956 10955 10954 10953 10952 10951 10950 10950 10949 10949 10949 10950 10950 10949 10948 10948 10947 10947 10947 10946 10946 10946 10946 10946 10947 10947 10947 10948 10948 10949 10949 10949 10950 10950 10950 10950 10950 10949 10950 10951 10952 10952 10952 10951 10951 10951 10951 10951 10951 10951 10951 10951 10951 10951 10951 10952 10952 10952 10952 10952 10952 10952 10952 10951 10951 10951 10950 10950 10949
10985 10983 10980 10977 10974 10973 10971 10969 10968 10967 10966 10964 10963 10961 10960 10958 10956 10955 10954 10953 10953 10952 10952 10952 10952 10951 10951 10951 10951 10950 10950 10949 10948 10948 10947 10947 10947 10947 10947 10947 10947 10947 10947 10947 10948 10948 10949 10949 10949 10950 10950 10950 10950 10950 10951 10951 10952 10952 10952 10951 10951 10951 10951 10951 10950 10950 10950 10950 10951 10951 10951 10951 10952 10952 10952 10952 10952 10952 10951 10951 10951 10951 10950 10949 10949
10985 10982 10979 10977 10974 10972 10971 10969 10968 10967 10966 10964 10963 10961 10960 10958 10957 10955 10955 10954 10954 10954 10954 10954 10953 10953 10953 10953 10953 10952 10951 10950 10949 10949 10949 10948 10948 10948 10948 10947 10947 10947 10947 10947 10947 10948 10948 10948 10949 10950 10950 10950 10950 10951 10951 10951 10952 10952 10952 10951 10951 10951 10951 10951 10950 10950 10950 10950 10950 10950 10951 10951 10951 10951 10951 10951 10951 10951 10951 10951 10950 10950 10950 10949 10949
10984 10982 10979 10976 10974 10972 10971 10969 10968 10967 10966 10964 10963 10961 10960 10958 10957 10956 10956 10956 10956 10955 10955 10955 10955 10954 10954 10954 10954 10953 10952 10951 10951 10950 10950 10949 10949 10948 10948 10947 10947 10946 10946 10946 10947 10947 10947 10948 10949 10949 10950 10950 10950 10951 10951 10951 10951 10951 10951 10951 10951 10950 10950 10950 10950 10950 10949 10949 10949 10950 10950 10950 10950 10950 10951 10951 10950 10951 10950 10950 10950 10950 10949 10949 10949
10984 10982 10979 10976 10974 10972 10971 10970 10968 10967 10966 10964 10963 10961 10960 10959 10958 10957 10957 10957 10957 10957 10956 10956 10956 10955 10955 10955 10955 10954 10953 10953 10952 10951 10951 10950 10949 10948 10947 10947 10946 10946 10946 10946 10947 10947 10947 10947 10948 10949 10950 10950 10950 10951 10951 10950 10950 10950 10950 10950 10950 10949 10949 10949 10949 10949 10949 10949 10949 10949 10950 10950 10950 10950 10950 10950 10950 10950 10950 10950 10950 10949 10949 10949 10949
10985 10982 10978 10976 10974 10973 10971 10970 10969 10967 10966 10964 10963 10962 10960 10959 10959 10958 10958 10957 10957 10957 10956 10956 10956 10956 10956 10956 10956 10955 10954 10954 10953 10952 10952 10951 10949 10948 10947 10946 10945 10945 10945 10946 10946 10947 10947 10947 10948 10949 10950 10950 10950 10950 10950 10950 10949 10949 10949 10949 10948 10948 10948 10948 10948 10948 10948 10948 10948 10949 10949 10949 10949 10949 10949 10950 10949 10950 10950 10950 10949 10949 10949 10949 10949
10985 10982 10978 10976 10975 10973 10972 10970 10969 10968 10966 10964 10963 10962 10961 10960 10959 10958 10958 10958 10957 10957 10957 10957 10957 10957 10957 10957 10956 10956 10955 10955 10954 10953 10953 10952 10950 10948 10947 10945 10944 10944 10944 10944 10945 10946 10947 10947 10948 10949 10950 10950 10950 10950 10949 10949 10949 10949 10948 10948 10948 10947 10947 10947 10947 10947 10948 10948 10948 10948 10948 10948 10948 10948 10949 10949 10949 10949 10950 10950 10949 10949 10949 10949 10949
10986 10982 10979 10977 10975 10974 10972 10971 10970 10968 10966 10964 10963 10962 10961 10960 10959 10958 10958 10958 10958 10958 10958 10958 10958 10958 10958 10957 10957 10956 10956 10956 10955 10955 10954 10953 10951 10949 10947 10945 10944 10943 10942 10943 10944 10945 10946 10946 10947 10949 10950 10950 10950 10950 10949 10949 10948 10948 10948 10947 10947 10947 10947 10947 10947 10947 10947 10947 10947 10948 10948 10948 10948 10948 10948 10948 10948 10949 10949 10949 10949 10949 10948 10948 10948
10986 10983 10980 10978 10976 10975 10973 10972 10970 10968 10967 10966 10965 10963 10962 10961 10960 10960 10959 10959 10959 10960 10960 10960 10960 10959 10959 10959 10958 10958 10957 10957 10957 10956 10955 10954 10952 10950 10948 10946 10944 10942 10942 10942 10943 10944 10945 10945 10947 10948 10949 10950 10950 10950 10949 10949 10948 10948 10947 10947 10947 10947 10947 10947 10947 10947 10947 10947 10947 10947 10947 10947 10947 10947 10947 10947 10948 10948 10948 10949 10948 10948 10948 10947 10947
10987 10984 10981 10979 10978 10976 10974 10973 10972 10970 10969 10968 10967 10965 10964 10963 10962 10962 10962 10962 10962 10962 10962 10962 10961 10961 10961 10960 10960 10959 10959 10959 10959 10958 10957 10955 10953 10951 10949 10946 10944 10943 10942 10942 10943 10944 10945 10945 10946 10948 10949 10950 10951 10951 10950 10949 10948 10948 10948 10947 10947 10947 10947 10947 10946 10946 10946 10946 10946 10946 10946 10946 10946 10947 10947 10947 10947 10947 10948 10947 10947 10947 10947 10946 10945
10988 10985 10982 10981 10979 10977 10976 10975 10974 10972 10971 10970 10969 10968 10967 10966 10965 10965 10965 10965 10965 10965 10964 10964 10964 10963 10963 10962 10962 10962 10962 10962 10961 10960 10959 10958 10955 10953 10950 10948 10946 10945 10944 10944 10944 10945 10946 10946 10947 10948 10950 10951 10951 10951 10950 10950 10949 10948 10948 10948 10948 10947 10947 10946 10946 10946 10946 10945 10945 10945 10945 10945 10946 10946 10946 10946 10946 10946 10946 10946 10946 10946 10946 10945 10945
10989 10986 10984 10982 10981 10979 10978 10977 10976 10974 10973 10972 10971 10971 10970 10969 10968 10968 10968 10967 10967 10967 10966 10966 10966 10965 10965 10965 10965 10965 10964 10964 10964 10963 10962 10961 10959 10956 10953 10950 10949 10947 10947 10947 10947 10948 10949 10949 10949 10950 10951 10952 10952 10952 10951 10950 10950 10949 10949 10948 10948 10947 10947 10946 10946 10945 10945 10945 10944 10944 10944 10944 10944 10945 10945 10945 10945 10945 10945 10945 10945 10945 10945 10945 10944
10990 10987 10985 10984 10982 10981 10979 10979 10978 10976 10976 10975 10974 10973 10973 10972 10971 10971 10970 10970 10969 10969 10969 10968 10968 10968 10968 10967 10967 10967 10967 10967 10967 10966 10966 10964 10962 10959 10956 10954 10952 10951 10950 10950 10951 10951 10952 10953 10953 10953 10954 10954 10954 10953 10953 10952 10951 10950 10949 10949 10948 10947 10947 10946 10945 10945 10944 10944 10944 10944 10943 10943 10943 10944 10944 10944 10945 10945 10945 10945 10944 10944 10944 10944 10944
10991 10989 10987 10985 10983 10982 10981 10981 10980 10979 10978 10977 10976 10976 10975 10975 10974 10973 10973 10972 10972 10972 10972 10971 10971 10971 10971 10970 10970 10970 10970 10970 10969 10969 10969 10968 10966 10963 10960 10958 10957 10956 10955 10954 10954 10955 10956 10956 10957 10957 10957 10956 10956 10956 10955 10954 10952 10951 10951 10950 10949 10948 10947 10946 10945 10945 10944 10944 10943 10943 10943 10943 10943 10943 10943 10944 10944 10944 10944 10944 10944 10944 10944 10944 10944
10993 10990 10988 10986 10985 10984 10983 10983 10983 10982 10981 10979 10978 10978 10978 10977 10977 10976 10976 10975 10975 10975 10975 10974 10975 10974 10974 10973 10973 10973 10972 10972 10972 10972 10971 10971 10969 10966 10965 10963 10962 10961 10960 10959 10959 10959 10959 10960 10960 10960 10959 10959 10959 10958 10957 10956 10954 10953 10952 10951 10950 10949 10948 10947 10946 10945 10945 10944 10943 10943 10943 10942 10942 10943 10943 10943 10943 10943 10943 10943 10943 10943 10943 10943 10943
10994 10992 10990 10988 10986 10985 10985 10985 10985 10984 10983 10981 10981 10980 10980 10980 10980 10980 10979 10979 10978 10978 10978 10978 10978 10977 10977 10977 10976 10976 10975 10975 10975 10974 10974 10974 10972 10970 10969 10968 10966 10965 10964 10964 10963 10963 10963 10963 10963 10963 10963 10962 10962 10961 10960 10958 10957 10956 10954 10953 10952 10951 10950 10949 10948 10947 10946 10945 10944 10944 10943 10943 10942 10942 10942 10942 10942 10942 10942 10942 10942 10943 10943 10943 10943
10996 10993 10991 10989 10988 10987 10987 10987 10987 10986 10985 10984 10984 10983 10983 10984 10984 10983 10983 10982 10981 10981 10981 10981 10980 10980 10980 10980 10979 10979 10979 10978 10978 10977 10977 10977 10976 10974 10972 10972 10971 10970 10969 10968 10968 10967 10967 10967 10966 10966 10966 10966 10965 10963 10962 10961 10960 10958 10957 10956 10955 10954 10953 10951 10950 10949 10948 10946 10945 10945 10944 10943 10943 10942 10942 10942 10942 10942 10942 10942 10942 10942 10943 10943 10943
10997 10995 10993 10991 10990 10990 10989 10989 10989 10989 10988 10987 10987 10986 10986 10987 10987 10987 10986 10985 10984 10984 10984 10983 10983 10983 10983 10983 10982 10982 10982 10982 10981 10981 10980 10980 10979 10978 10976 10975 10975 10975 10974 10973 10972 10972 10971 10971 10970 10970 10969 10968 10967 10966 10965 10964 10963 10961 10960 10959 10958 10956 10955 10954 10953 10951 10950 10948 10947 10946 10946 10945 10944 10943 10943 10942 10942 10942 10942 10942 10942 10943 10943 10943 10943
10999 10997 10995 10993 10992 10992 10991 10991 10991 10991 10991 10990 10989 10989 10989 10989 10990 10989 10989 10988 10987 10987 10986 10986 10986 10986 10986 10986 10986 10986 10985 10985 10984 10984 10983 10983 10982 10982 10981 10980 10979 10979 10978 10977 10976 10976 10975 10975 10974 10973 10972 10971 10970 10968 10967 10966 10965 10963 10962 10961 10960 10959 10958 10957 10955 10954 10952 10951 10950 10949 10948 10946 10945 10945 10944 10944 10943 10943 10943 10943 10943 10943 10943 10943 10943
11000 10998 10997 10995 10994 10993 10993 10993 10993 10993 10993 10992 10991 10991 10991 10991 10992 10992 10992 10991 10991 10990 10989 10989 10989 10989 10990 10990 10990 10989 10989 10988 10987 10987 10986 10986 10986 10985 10984 10983 10983 10982 10982 10981 10980 10980 10979 10978 10977 10975 10973 10972 10972 10970 10969 10967 10966 10965 10964 10962 10962 10961 10960 10959 10957 10956 10955 10953 10952 10951 10950 10949 10947 10947 10946 10945 10945 10944 10944 10944 10944 10944 10944 10944 10945
11001 10999 10998 10997 10996 10995 10995 10995 10995 10995 10995 10994 10994 10994 10993 10993 10994 10995 10995 10994 10994 10993 10992 10993 10993 10993 10993 10993 10993 10993 10992 10992 10991 10990 10990 10989 10989 10988 10988 10987 10986 10986 10985 10984 10984 10983 10982 10980 10979 10977 10976 10974 10973 10971 10970 10968 10967 10966 10965 10964 10964 10963 10962 10961 10960 10958 10957 10955 10954 10953 10952 10951 10950 10949 10948 10947 10947 10946 10946 10946 10946 10946 10946 10946 10946
11002 11001 11000 10998 10997 10997 10997 10997 10997 10997 10997 10996 10996 10996 10996 10996 10996 10997 10997 10997 10996 10996 10995 10996 10996 10996 10996 10996 10996 10996 10996 10995 10995 10994 10993 10992 10992 10992 10991 10991 10990 10989 10988 10987 10987 10986 10984 10983 10982 10980 10978 10977 10975 10973 10972 10970 10969 10968 10967 10966 10965 10964 10963 10962 10961 10960 10959 10958 10956 10955 10954 10953 10953 10952 10951 10950 10950 10949 10949 10948 10948 10948 10948 10949 10949
11004 11002 11001 11000 10999 10998 10998 10999 10998 10998 10999 10998 10998 10998 10998 10998 10998 10999 10999 10999 10999 10999 10998 10998 10998 10999 10999 10999 10999 10999 10999 10999 10998 10997 10996 10996 10995 10995 10995 10994 10993 10992 10992 10991 10989 10988 10987 10986 10985 10983 10981 10980 10978 10976 10974 10973 10972 10970 10969 10968 10967 10966 10965 10964 10962 10961 10960 10960 10959 10958 10957 10956 10955 10954 10954 10953 10952 10952 10951 10951 10951 10951 10951 10951 10951
11005 11003 11002 11001 11001 11000 11000 11000 11000 11000 11000 11000 10999 10999 10999 11000 11000 11001 11001 11001 11001 11001 11001 11001 11001 11001 11002 11002 11002 11002 11002 11002 11001 11000 11000 10999 10998 10998 10997 10997 10996 10995 10994 10994 10992 10991 10990 10989 10988 10986 10985 10983 10981 10979 10977 10976 10975 10973 10972 10970 10969 10968 10967 10966 10964 10963 10962 10961 10960 10960 10959 10958 10957 10957 10956 10955 10954 10954 10953 10953 10953 10953 10953 10953 10952
11005 11004 11003 11003 11002 11002 11002 11002 11002 11001 11001 11001 11001 11001 11001 11001 11002 11002 11003 11003 11004 11003 11003 11003 11004 11004 11004 11004 11004 11005 11004 11004 11004 11003 11003 11002 11001 11000 11000 10999 10999 10998 10997 10997 10996 10995 10994 10992 10991 10990 10988 10986 10984 10982 10981 10979 10978 10977 10975 10974 10972 10971 10970 10968 10966 10965 10964 10963 10962 10961 10961 10960 10959 10958 10958 10957 10956 10956 10955 10955 10954 10954 10954 10953 10953
11006 11005 11004 11004 11003 11003 11003 11003 11003 11003 11002 11002 11002 11002 11002 11002 11003 11004 11004 11005 11005 11005 11005 11005 11006 11006 11007 11007 11007 11007 11007 11007 11007 11006 11005 11005 11004 11003 11002 11002 11001 11001 11000 11000 10999 10998 10997 10995 10994 10993 10991 10990 10988 10986 10984 10983 10981 10980 10978 10977 10975 10974 10972 10971 10969 10968 10966 10965 10964 10963 10962 10962 10961 10960 10959 10959 10958 10957 10957 10956 10955 10955 10954 10954 10954
11007 11006 11005 11005 11005 11005 11005 11005 11005 11004 11004 11004 11004 11003 11003 11003 11004 11005 11006 11007 11007 11007 11007 11008 11008 11008 11009 11009 11010 11010 11010 11010 11009 11009 11008 11007 11007 11006 11005 11004 11004 11003 11003 11002 11001 11000 11000 10999 10998 10996 10995 10993 10991 10989 10988 10986 10984 10983 10981 10980 10978 10976 10975 10974 10972 10970 10969 10967 10966 10965 10964 10963 10962 10961 10960 10959 10959 10958 10957 10957 10956 10955 10955 10955 10955
11008 11007 11006 11006 11006 11006 11006 11007 11006 11006 11006 11006 11005 11005 11005 11005 11005 11006 11007 11008 11009 11009 11009 11010 11010 11010 11010 11011 11012 11012 11012 11012 11012 11011 11011 11010 11009 11009 11008 11008 11007 11006 11005 11004 11003 11002 11002 11001 11000 10998 10997 10996 10994 10992 10991 10989 10987 10986 10984 10982 10980 10979 10978 10977 10974 10973 10971 10970 10968 10967 10965 10964 10963 10961 10960 10959 10958 10958 10957 10956 10956 10956 10955 10955 10955
11009 11008 11007 11008 11008 11007 11008 11008 11008 11008 11008 11008 11007 11007 11007 11006 11007 11008 11009 11010 11010 11011 11011 11011 11012 11012 11012 11013 11014 11014 11014 11015 11014 11014 11013 11012 11012 11012 11011 11010 11009 11008 11007 11006 11005 11005 11003 11002 11001 11000 10999 10998 10997 10995 10993 10991 10989 10988 10986 10984 10982 10981 10980 10979 10977 10975 10973 10972 10970 10968 10967 10965 10963 10962 10960 10959 10957 10956 10956 10955 10955 10955 10955 10955 10954
11009 11008 11008 11008 11009 11009 11009 11010 11010 11010 11009 11009 11009 11008 11008 11008 11008 11009 11010 11011 11012 11013 11013 11013 11013 11013 11014 11015 11015 11016 11016 11017 11016 11016 11015 11015 11014 11014 11014 11013 11013 11012 11011 11010 11008 11007 11006 11004 11003 11001 11000 11000 10998 10997 10996 10993 10991 10989 10988 10986 10985 10984 10982 10981 10978 10976 10975 10973 10972 10969 10968 10966 10964 10962 10960 10958 10957 10955 10955 10954 10953 10953 10953 10953 10953
11009 11009 11009 11009 11010 11010 11010 11011 11011 11011 11011 11011 11010 11010 11010 11010 11010 11010 11012 11013 11013 11014 11014 11015 11015 11015 11016 11016 11017 11017 11018 11018 11018 11018 11018 11017 11017 11017 11017 11017 11016 11015 11014 11013 11012 11010 11008 11007 11005 11004 11003 11002 11001 10999 10998 10995 10993 10991 10990 10988 10987 10986 10984 10982 10980 10978 10977 10975 10973 10970 10968 10966 10964 10961 10960 10958 10956 10955 10954 10953 10952 10952 10952 10952 10952
11009 11009 11009 11010 11010 11011 11011 11012 11013 11013 11012 11012 11012 11011 11011 11011 11012 11012 11013 11014 11015 11015 11016 11016 11016 11017 11018 11018 11018 11019 11019 11020 11020 11021 11021 11021 11020 11020 11020 11020 11019 11018 11017 11016 11015 11013 11011 11010 11009 11008 11007 11005 11004 11002 11000 10998 10995 10993 10992 10990 10989 10987 10985 10983 10982 10981 10979 10977 10974 10972 10969 10967 10964 10962 10960 10958 10957 10955 10953 10952 10951 10951 10950 10950 10950
11009 11008 11009 11010 11010 11011 11012 11012 11013 11014 11013 11013 11013 11013 11013 11013 11014 11014 11015 11016 11016 11017 11017 11017 11018 11018 11019 11019 11020 11020 11020 11021 11022 11023 11023 11023 11023 11023 11023 11022 11021 11020 11019 11019 11017 11015 11014 11013 11012 11011 11010 11008 11007 11004 11002 11000 10998 10996 10995 10993 10991 10989 10987 10986 10984 10983 10981 10978 10976 10973 10971 10968 10966 10963 10961 10960 10958 10955 10953 10952 10951 10950 10949 10949 10949
11008 11008 11008 11009 11010 11011 11012 11013 11014 11014 11014 11014 11014 11014 11014 11015 11015 11016 11017 11017 11018 11018 11018 11019 11019 11019 11020 11020 11021 11021 11022 11022 11023 11023 11024 11024 11024 11024 11024 11024 11023 11022 11022 11021 11020 11018 11017 11016 11015 11014 11013 11011 11009 11007 11005 11003 11001 10999 10997 10996 10994 10991 10990 10988 10987 10985 10982 10980 10977 10975 10972 10970 10967 10965 10963 10961 10958 10956 10954 10952 10951 10950 10949 10949 10949
11008 11007 11008 11009 11010 11011 11012 11013 11014 11015 11015 11015 11015 11016 11016 11016 11016 11017 11018 11019 11019 11019 11019 11020 11020 11020 11021 11021 11022 11022 11023 11023 11023 11024 11024 11025 11025 11025 11026 11025 11025 11024 11024 11023 11022 11020 11019 11018 11017 11016 11015 11013 11012 11010 11008 11006 11004 11002 11000 10998 10996 10994 10993 10991 10989 10987 10984 10982 10979 10976 10973 10971 10969 10967 10965 10962 10959 10957 10955 10953 10952 10950 10949 10949 10949
11008 11007 11007 11008 11010 11011 11012 11013 11014 11015 11016 11016 11017 11017 11017 11017 11017 11018 11019 11019 11020 11020 11021 11021 11021 11021 11022 11022 11022 11023 11024 11024 11024 11025 11025 11026 11026 11027 11027 11027 11027 11026 11025 11025 11023 11022 11021 11020 11019 11018 11017 11015 11014 11012 11010 11008 11006 11004 11002 11000 10998 10996 10995 10993 10991 10989 10986 10984 10981 10978 10975 10973 10972 10970 10967 10964 10961 10959 10957 10955 10953 10952 10951 10950 10950
11008 11007 11006 11007 11009 11010 11012 11013 11014 11015 11016 11017 11018 11018 11018 11018 11018 11019 11019 11020 11021 11021 11022 11022 11022 11022 11022 11023 11023 11024 11024 11025 11025 11026 11027 11027 11027 11028 11028 11028 11028 11027 11027 11026 11025 11024 11023 11022 11021 11020 11019 11018 11016 11014 11012 11010 11008 11006 11004 11002 11000 10998 10996 10995 10993 10991 10988 10986 10982 10980 10978 10976 10974 10972 10969 10967 10965 10962 10960 10957 10955 10954 10954 10953 10953
11008 11007 11006 11007 11008 11010 11011 11012 11014 11015 11016 11017 11018 11019 11019 11019 11019 11020 11020 11020 11021 11022 11023 11023 11023 11023 11023 11023 11024 11024 11025 11026 11026 11027 11028 11028 11028 11029 11029 11029 11029 11028 11028 11027 11026 11025 11024 11024 11023 11021 11020 11019 11018 11016 11014 11013 11011 11009 11007 11005 11003 11001 10998 10996 10994 10992 10991 10988 10985 10983 10981 10978 10976 10975 10973 10971 10968 10966 10963 10961 10960 10958 10957 10957 10956
11007 11007 11006 11006 11007 11009 11010 11011 11013 11014 11016 11017 11019 11019 11020 11020 11021 11021 11021 11021 11022 11023 11023 11024 11024 11024 11024 11024 11025 11025 11026 11027 11027 11028 11028 11029 11029 11030 11030 11030 11030 11029 11029 11029 11028 11027 11026 11025 11024 11023 11022 11020 11019 11018 11017 11015 11013 11011 11009 11007 11005 11003 11001 10998 10996 10994 10992 10990 10988 10986 10984 10981 10980 10979 10977 10974 10971 10970 10968 10966 10965 10963 10961 10961 10960
11007 11007 11006 11006 11006 11008 11009 11010 11012 11013 11015 11017 11018 11019 11020 11021 11021 11022 11022 11022 11023 11023 11024 11024 11024 11025 11025 11025 11026 11026 11027 11028 11028 11029 11029 11030 11030 11030 11031 11030 11030 11030 11030 11030 11029 11028 11027 11026 11024 11024 11023 11021 11020 11020 11019 11017 11015 11013 11011 11009 11008 11006 11003 11001 10998 10996 10994 10992 10991 10989 10987 10985 10983 10982 10979 10977 10976 10976 10974 10971 10970 10968 10966 10966 10965
11006 11007 11007 11006 11006 11007 11008 11009 11011 11012 11014 11016 11017 11019 11020 11021 11022 11023 11023 11023 11024 11024 11025 11025 11025 11025 11026 11026 11026 11027 11028 11029 11029 11030 11030 11030 11031 11031 11031 11031 11031 11031 11031 11030 11030 11029 11028 11027 11026 11025 11024 11023 11022 11021 11020 11019 11017 11015 11013 11011 11010 11008 11006 11004 11001 10999 10997 10996 10995 10993 10990 10988 10986 10984 10983 10982 10981 10980 10978 10976 10974 10973 10971 10971 10970
11006 11006 11006 11006 11006 11006 11008 11009 11010 11012 11013 11015 11017 11018 11020 11021 11022 11023 11023 11023 11024 11025 11025 11025 11026 11026 11026 11027 11027 11028 11029 11029 11030 11030 11031 11031 11031 11032 11032 11031 11031 11031 11031 11031 11031 11030 11029 11028 11027 11026 11025 11024 11024 11023 11022 11020 11018 11017 11015 11014 11012 11010 11008 11006 11004 11002 11000 10999 10998 10996 10993 10990 10988 10988 10987 10986 10984 10983 10982 10980 10979 10978 10976 10976 10975
11005 11005 11006 11006 11006 11005 11007 11008 11009 11011 11012 11014 11016 11018 11019 11021 11022 11023 11023 11023 11024 11025 11025 11026 11026 11027 11027 11028 11028 11029 11029 11030 11031 11031 11031 11032 11032 11032 11032 11032 11032 11032 11032 11032 11031 11031 11030 11029 11028 11028 11027 11026 11025 11024 11023 11021 11020 11019 11017 11016 11014 11012 11010 11009 11006 11005 11003 11001 11000 10998 10995 10994 10993 10991 10990 10988 10987 10986 10985 10984 10983 10982 10981 10980 10980
11004 11005 11005 11006 11005 11005 11006 11007 11008 11009 11011 11013 11016 11017 11019 11021 11022 11023 11023 11024 11024 11025 11026 11026 11027 11027 11027 11028 11029 11029 11030 11031 11031 11031 11031 11032 11032 11032 11033 11033 11033 11033 11033 11032 11032 11032 11031 11030 11030 11029 11028 11028 11027 11025 11024 11023 11022 11021 11019 11018 11016 11014 11013 11011 11009 11008 11006 11004 11002 11000 10998 10998 10996 10994 10992 10991 10990 10989 10989 10988 10987 10986 10985 10984 10984
11003 11004 11004 11005 11005 11005 11005 11006 11007 11008 11010 11012 11015 11017 11019 11021 11021 11022 11023 11024 11024 11025 11026 11026 11027 11027 11028 11028 11029 11030 11030 11031 11031 11031 11032 11032 11032 11032 11033 11033 11034 11033 11033 11033 11033 11032 11032 11031 11031 11030 11029 11029 11028 11026 11025 11024 11023 11022 11021 11020 11018 11016 11015 11013 11012 11010 11008 11006 11005 11003 11002 11001 10999 10997 10995 10994 10993 10993 10992 10991 10991 10989 10988 10988 10988